User: anonymous   Login
Location: Newark
(13.8625°N, 100.5144°E)
Time: 04:46:04
(UTC+00:00)
Language:

Gurwin Techsat 1B - Orbit

View from above orbital plane
View from above orbital plane
View from above satellite
View from above satellite

Ground track
Ground track

The orbit data is extracted from the following two-line orbital elements,

1 25397U 98043D   21209.44861134 -.00000012  00000-0  14204-4 0  9994
2 25397  98.7724 154.8931 0001188  19.4406 340.6818 14.23712241197327
Epoch (UTC): 28 July 2021 10:46:00
Eccentricity: 0.0001188
inclination: 98.7724°
perigee height: 812 km
apogee height: 813 km
right ascension of ascending node: 154.8931°
argument of perigee: 19.4406°
revolutions per day: 14.23712241
mean anomaly at epoch: 340.6818°
orbit number at epoch: 19732

The dashed part of the orbit path shows where the satellite is in the earth's shadow,  

DLR